contact:dominique.lefevre@mio.osupytheas.fr, maurice.libes@osupytheas.fr, didier.mallarino@osupytheas.fr
Project:EMSO http://www.emso-fr.org/EMSO-France
Depth: 2436.0 m
Title:EMSO Ligure Ouest : Data MII capteur CSTAR
DateTime,Latitude,Longitude,Instrument_Serial,Reference_Counts,Signal_Counts,Corrected_Signal_raw_counts,Calculated_Beam_c_inverse_meters,Internal_thermistor_counts
DateTime,Latitude,Longitude,Instrument_Serial,Reference_Counts,Signal_Counts,Corrected_Signal_raw_counts,Calculated_Beam_c_inverse_meters,Internal_thermistor_counts
2019-11-03T00:00:19,42.805,6.029,CST-1368DR,7453,10441,15321,0.076,551
2019-11-03T00:03:21,42.805,6.029,CST-1368DR,7453,10441,15321,0.076,551
2019-11-03T00:06:22,42.805,6.029,CST-1368DR,7453,10441,15322,0.076,551
2019-11-03T00:09:24,42.805,6.029,CST-1368DR,7454,10442,15321,0.076,551
2019-11-03T00:12:26,42.805,6.029,CST-1368DR,7454,10442,15321,0.076,550
2019-11-03T00:15:27,42.805,6.029,CST-1368DR,7454,10441,15320,0.077,551
2019-11-03T00:18:29,42.805,6.029,CST-1368DR,7453,10442,15323,0.076,550
2019-11-03T00:21:31,42.805,6.029,CST-1368DR,7453,10442,15323,0.076,551
2019-11-03T00:24:32,42.805,6.029,CST-1368DR,7453,10440,15321,0.076,551
2019-11-03T00:27:34,42.805,6.029,CST-1368DR,7453,10441,15322,0.076,551
2019-11-03T00:30:36,42.805,6.029,CST-1368DR,7453,10442,15324,0.076,551
2019-11-03T00:33:37,42.805,6.029,CST-1368DR,7453,10442,15323,0.076,551
2019-11-03T00:36:39,42.805,6.029,CST-1368DR,7453,10440,15320,0.077,551
2019-11-03T00:39:41,42.805,6.029,CST-1368DR,7453,10442,15323,0.076,551
2019-11-03T00:42:42,42.805,6.029,CST-1368DR,7453,10440,15321,0.076,551
2019-11-03T00:45:44,42.805,6.029,CST-1368DR,7453,10442,15324,0.076,551
2019-11-03T00:48:46,42.805,6.029,CST-1368DR,7453,10442,15323,0.076,551
2019-11-03T00:51:47,42.805,6.029,CST-1368DR,7453,10440,15321,0.076,551
2019-11-03T00:54:49,42.805,6.029,CST-1368DR,7453,10440,15320,0.077,551
2019-11-03T00:57:51,42.805,6.029,CST-1368DR,7453,10442,15323,0.076,551
2019-11-03T01:00:52,42.805,6.029,CST-1368DR,7453,10440,15319,0.077,551
2019-11-03T01:03:54,42.805,6.029,CST-1368DR,7453,10442,15323,0.076,550
2019-11-03T01:06:56,42.805,6.029,CST-1368DR,7453,10439,15319,0.077,551
2019-11-03T01:09:57,42.805,6.029,CST-1368DR,7453,10440,15321,0.076,551
2019-11-03T01:12:59,42.805,6.029,CST-1368DR,7453,10442,15323,0.076,551
2019-11-03T01:16:01,42.805,6.029,CST-1368DR,7453,10442,15323,0.076,551
2019-11-03T01:19:02,42.805,6.029,CST-1368DR,7453,10441,15322,0.076,551
2019-11-03T01:22:04,42.805,6.029,CST-1368DR,7453,10442,15323,0.076,551
2019-11-03T01:25:06,42.805,6.029,CST-1368DR,7453,10441,15322,0.076,551
2019-11-03T01:28:07,42.805,6.029,CST-1368DR,7453,10442,15323,0.076,551
2019-11-03T01:31:09,42.805,6.029,CST-1368DR,7453,10441,15321,0.076,551
2019-11-03T01:34:11,42.805,6.029,CST-1368DR,7453,10441,15321,0.076,551
2019-11-03T01:37:13,42.805,6.029,CST-1368DR,7453,10439,15319,0.077,550
2019-11-03T01:40:14,42.805,6.029,CST-1368DR,7453,10441,15321,0.076,551
2019-11-03T01:43:16,42.805,6.029,CST-1368DR,7453,10441,15321,0.076,551
2019-11-03T01:46:17,42.805,6.029,CST-1368DR,7453,10442,15323,0.076,551
2019-11-03T01:49:19,42.805,6.029,CST-1368DR,7453,10442,15323,0.076,551
2019-11-03T01:52:21,42.805,6.029,CST-1368DR,7453,10440,15321,0.076,551
2019-11-03T01:55:22,42.805,6.029,CST-1368DR,7453,10440,15320,0.077,550
2019-11-03T01:58:24,42.805,6.029,CST-1368DR,7453,10441,15322,0.076,551
2019-11-03T02:01:26,42.805,6.029,CST-1368DR,7453,10441,15322,0.076,550
2019-11-03T02:04:27,42.805,6.029,CST-1368DR,7453,10441,15322,0.076,551
2019-11-03T02:07:29,42.805,6.029,CST-1368DR,7453,10440,15321,0.076,551
2019-11-03T02:10:31,42.805,6.029,CST-1368DR,7453,10442,15323,0.076,551
2019-11-03T02:13:32,42.805,6.029,CST-1368DR,7453,10440,15320,0.077,551
2019-11-03T02:16:34,42.805,6.029,CST-1368DR,7453,10441,15321,0.076,551
2019-11-03T02:19:35,42.805,6.029,CST-1368DR,7453,10441,15322,0.076,551
2019-11-03T02:22:37,42.805,6.029,CST-1368DR,7453,10440,15321,0.076,551
2019-11-03T02:25:39,42.805,6.029,CST-1368DR,7453,10441,15322,0.076,551
2019-11-03T02:28:40,42.805,6.029,CST-1368DR,7453,10441,15322,0.076,551
2019-11-03T02:31:42,42.805,6.029,CST-1368DR,7453,10441,15321,0.076,551
2019-11-03T02:34:44,42.805,6.029,CST-1368DR,7453,10441,15322,0.076,551
2019-11-03T02:37:45,42.805,6.029,CST-1368DR,7453,10440,15319,0.077,551
2019-11-03T02:40:47,42.805,6.029,CST-1368DR,7453,10441,15321,0.076,550
2019-11-03T02:43:49,42.805,6.029,CST-1368DR,7453,10440,15321,0.076,551
2019-11-03T02:46:50,42.805,6.029,CST-1368DR,7453,10442,15323,0.076,551
2019-11-03T02:49:52,42.805,6.029,CST-1368DR,7453,10441,15321,0.076,551
2019-11-03T02:52:54,42.805,6.029,CST-1368DR,7453,10440,15320,0.077,551
2019-11-03T02:55:56,42.805,6.029,CST-1368DR,7452,10442,15325,0.075,551
2019-11-03T02:58:57,42.805,6.029,CST-1368DR,7452,10442,15325,0.075,550
2019-11-03T03:01:59,42.805,6.029,CST-1368DR,7452,10440,15322,0.076,551
2019-11-03T03:05:00,42.805,6.029,CST-1368DR,7452,10441,15324,0.076,551
2019-11-03T03:08:02,42.805,6.029,CST-1368DR,7452,10439,15320,0.077,551
2019-11-03T03:11:04,42.805,6.029,CST-1368DR,7452,10441,15323,0.076,551
2019-11-03T03:14:05,42.805,6.029,CST-1368DR,7452,10439,15320,0.077,550
2019-11-03T03:17:07,42.805,6.029,CST-1368DR,7452,10440,15322,0.076,551
2019-11-03T03:20:09,42.805,6.029,CST-1368DR,7452,10440,15322,0.076,551
2019-11-03T03:23:10,42.805,6.029,CST-1368DR,7452,10441,15323,0.076,551
2019-11-03T03:26:12,42.805,6.029,CST-1368DR,7452,10441,15323,0.076,550
2019-11-03T03:29:13,42.805,6.029,CST-1368DR,7452,10438,15319,0.077,551
2019-11-03T03:32:15,42.805,6.029,CST-1368DR,7452,10441,15323,0.076,551
2019-11-03T03:35:17,42.805,6.029,CST-1368DR,7452,10440,15322,0.076,551
2019-11-03T03:38:19,42.805,6.029,CST-1368DR,7452,10438,15319,0.077,551
2019-11-03T03:41:20,42.805,6.029,CST-1368DR,7452,10436,15317,0.077,551
2019-11-03T03:44:22,42.805,6.029,CST-1368DR,7452,10440,15322,0.076,551
2019-11-03T03:47:23,42.805,6.029,CST-1368DR,7452,10440,15322,0.076,551
2019-11-03T03:50:25,42.805,6.029,CST-1368DR,7452,10438,15318,0.077,551
2019-11-03T03:53:27,42.805,6.029,CST-1368DR,7452,10437,15318,0.077,551
2019-11-03T03:56:28,42.805,6.029,CST-1368DR,7452,10440,15321,0.076,551
2019-11-03T03:59:30,42.805,6.029,CST-1368DR,7452,10441,15324,0.076,551
2019-11-03T04:02:32,42.805,6.029,CST-1368DR,7452,10440,15322,0.076,551
2019-11-03T04:05:34,42.805,6.029,CST-1368DR,7452,10440,15322,0.076,551
2019-11-03T04:08:35,42.805,6.029,CST-1368DR,7452,10439,15321,0.076,551
2019-11-03T04:11:37,42.805,6.029,CST-1368DR,7452,10440,15322,0.076,551
2019-11-03T04:14:39,42.805,6.029,CST-1368DR,7452,10439,15321,0.076,551
2019-11-03T04:17:40,42.805,6.029,CST-1368DR,7452,10439,15320,0.077,551
2019-11-03T04:20:42,42.805,6.029,CST-1368DR,7452,10439,15320,0.077,551
2019-11-03T04:23:44,42.805,6.029,CST-1368DR,7452,10439,15320,0.077,551
2019-11-03T04:26:46,42.805,6.029,CST-1368DR,7452,10440,15322,0.076,550
2019-11-03T04:29:47,42.805,6.029,CST-1368DR,7452,10440,15322,0.076,551
2019-11-03T04:32:49,42.805,6.029,CST-1368DR,7452,10439,15320,0.077,551
2019-11-03T04:35:51,42.805,6.029,CST-1368DR,7452,10437,15317,0.077,550
2019-11-03T04:38:53,42.805,6.029,CST-1368DR,7452,10439,15321,0.076,551
2019-11-03T04:41:54,42.805,6.029,CST-1368DR,7452,10439,15321,0.076,551
2019-11-03T04:44:56,42.805,6.029,CST-1368DR,7452,10436,15316,0.078,551
2019-11-03T04:47:58,42.805,6.029,CST-1368DR,7452,10436,15317,0.077,551
2019-11-03T04:50:59,42.805,6.029,CST-1368DR,7452,10440,15321,0.076,551
2019-11-03T04:54:01,42.805,6.029,CST-1368DR,7452,10439,15320,0.077,551
2019-11-03T04:57:03,42.805,6.029,CST-1368DR,7452,10439,15321,0.076,550
2019-11-03T05:00:04,42.805,6.029,CST-1368DR,7452,10439,15320,0.077,551
2019-11-03T05:03:06,42.805,6.029,CST-1368DR,7452,10439,15320,0.077,551
2019-11-03T05:06:08,42.805,6.029,CST-1368DR,7452,10440,15321,0.076,551
2019-11-03T05:09:09,42.805,6.029,CST-1368DR,7452,10440,15321,0.076,551
2019-11-03T05:12:11,42.805,6.029,CST-1368DR,7452,10437,15318,0.077,551
2019-11-03T05:15:13,42.805,6.029,CST-1368DR,7452,10438,15319,0.077,551
2019-11-03T05:18:15,42.805,6.029,CST-1368DR,7452,10439,15320,0.077,551
2019-11-03T05:21:16,42.805,6.029,CST-1368DR,7452,10438,15319,0.077,551
2019-11-03T05:24:18,42.805,6.029,CST-1368DR,7452,10438,15319,0.077,551
2019-11-03T05:27:19,42.805,6.029,CST-1368DR,7452,10437,15318,0.077,551
2019-11-03T05:30:21,42.805,6.029,CST-1368DR,7452,10437,15317,0.077,551
2019-11-03T05:33:23,42.805,6.029,CST-1368DR,7452,10438,15319,0.077,551
2019-11-03T05:36:24,42.805,6.029,CST-1368DR,7452,10439,15321,0.076,551
2019-11-03T05:39:26,42.805,6.029,CST-1368DR,7452,10439,15320,0.077,551
2019-11-03T05:42:28,42.805,6.029,CST-1368DR,7452,10439,15321,0.076,551
2019-11-03T05:45:29,42.805,6.029,CST-1368DR,7452,10438,15318,0.077,551
2019-11-03T05:48:31,42.805,6.029,CST-1368DR,7452,10437,15318,0.077,551
2019-11-03T05:51:33,42.805,6.029,CST-1368DR,7452,10438,15319,0.077,550
2019-11-03T05:54:34,42.805,6.029,CST-1368DR,7452,10439,15320,0.077,551
2019-11-03T05:57:36,42.805,6.029,CST-1368DR,7452,10438,15319,0.077,551
2019-11-03T06:00:38,42.805,6.029,CST-1368DR,7452,10438,15319,0.077,551
2019-11-03T06:03:39,42.805,6.029,CST-1368DR,7452,10439,15320,0.077,551
2019-11-03T06:06:41,42.805,6.029,CST-1368DR,7452,10439,15320,0.077,551
2019-11-03T06:09:43,42.805,6.029,CST-1368DR,7452,10439,15321,0.076,551
2019-11-03T06:12:45,42.805,6.029,CST-1368DR,7451,10438,15321,0.076,551
2019-11-03T06:15:46,42.805,6.029,CST-1368DR,7452,10439,15320,0.077,551
2019-11-03T06:18:48,42.805,6.029,CST-1368DR,7452,10439,15320,0.077,551
2019-11-03T06:21:49,42.805,6.029,CST-1368DR,7452,10439,15320,0.077,551
2019-11-03T06:24:51,42.805,6.029,CST-1368DR,7452,10437,15318,0.077,551
2019-11-03T06:27:53,42.805,6.029,CST-1368DR,7452,10439,15321,0.076,551
2019-11-03T06:30:54,42.805,6.029,CST-1368DR,7452,10439,15320,0.077,551
2019-11-03T06:33:56,42.805,6.029,CST-1368DR,7451,10435,15317,0.077,551
2019-11-03T06:36:58,42.805,6.029,CST-1368DR,7452,10437,15317,0.077,551
2019-11-03T06:39:59,42.805,6.029,CST-1368DR,7451,10439,15322,0.076,551
2019-11-03T06:43:01,42.805,6.029,CST-1368DR,7452,10439,15320,0.077,551
2019-11-03T06:46:03,42.805,6.029,CST-1368DR,7451,10439,15323,0.076,551
2019-11-03T06:49:04,42.805,6.029,CST-1368DR,7451,10437,15319,0.077,551
2019-11-03T06:52:06,42.805,6.029,CST-1368DR,7451,10436,15318,0.077,551
2019-11-03T06:55:08,42.805,6.029,CST-1368DR,7451,10437,15320,0.077,551
2019-11-03T06:58:09,42.805,6.029,CST-1368DR,7451,10439,15323,0.076,551
2019-11-03T07:01:11,42.805,6.029,CST-1368DR,7451,10440,15324,0.076,551
2019-11-03T07:04:13,42.805,6.029,CST-1368DR,7451,10441,15325,0.075,551
2019-11-03T07:07:14,42.805,6.029,CST-1368DR,7451,10439,15322,0.076,551
2019-11-03T07:10:16,42.805,6.029,CST-1368DR,7451,10438,15321,0.076,551
2019-11-03T07:13:18,42.805,6.029,CST-1368DR,7451,10436,15318,0.077,551
2019-11-03T07:16:19,42.805,6.029,CST-1368DR,7451,10439,15323,0.076,551
2019-11-03T07:19:21,42.805,6.029,CST-1368DR,7451,10440,15324,0.076,551
2019-11-03T07:22:22,42.805,6.029,CST-1368DR,7451,10438,15320,0.077,551
2019-11-03T07:25:24,42.805,6.029,CST-1368DR,7451,10440,15324,0.076,551
2019-11-03T07:28:26,42.805,6.029,CST-1368DR,7451,10438,15321,0.076,550
2019-11-03T07:31:27,42.805,6.029,CST-1368DR,7451,10439,15323,0.076,551
2019-11-03T07:34:29,42.805,6.029,CST-1368DR,7451,10438,15321,0.076,551
2019-11-03T07:37:31,42.805,6.029,CST-1368DR,7451,10434,15315,0.078,551
2019-11-03T07:40:32,42.805,6.029,CST-1368DR,7451,10437,15319,0.077,551
2019-11-03T07:43:34,42.805,6.029,CST-1368DR,7451,10439,15322,0.076,551
2019-11-03T07:46:36,42.805,6.029,CST-1368DR,7451,10437,15320,0.077,551
2019-11-03T07:49:37,42.805,6.029,CST-1368DR,7451,10439,15323,0.076,551
2019-11-03T07:52:39,42.805,6.029,CST-1368DR,7451,10439,15322,0.076,550
2019-11-03T07:55:40,42.805,6.029,CST-1368DR,7451,10440,15323,0.076,550
2019-11-03T07:58:42,42.805,6.029,CST-1368DR,7451,10440,15324,0.076,551
2019-11-03T08:01:44,42.805,6.029,CST-1368DR,7451,10440,15323,0.076,551
2019-11-03T08:04:45,42.805,6.029,CST-1368DR,7451,10439,15322,0.076,551
2019-11-03T08:07:47,42.805,6.029,CST-1368DR,7451,10437,15319,0.077,551
2019-11-03T08:10:49,42.805,6.029,CST-1368DR,7451,10439,15322,0.076,551
2019-11-03T08:13:50,42.805,6.029,CST-1368DR,7451,10439,15322,0.076,551
2019-11-03T08:16:52,42.805,6.029,CST-1368DR,7451,10439,15322,0.076,551
2019-11-03T08:19:54,42.805,6.029,CST-1368DR,7451,10438,15320,0.077,551
2019-11-03T08:22:55,42.805,6.029,CST-1368DR,7451,10439,15323,0.076,551
2019-11-03T08:25:57,42.805,6.029,CST-1368DR,7451,10438,15321,0.076,551
2019-11-03T08:28:59,42.805,6.029,CST-1368DR,7451,10439,15323,0.076,551
2019-11-03T08:32:00,42.805,6.029,CST-1368DR,7451,10439,15323,0.076,551
2019-11-03T08:35:02,42.805,6.029,CST-1368DR,7451,10439,15322,0.076,551
2019-11-03T08:38:04,42.805,6.029,CST-1368DR,7451,10438,15321,0.076,551
2019-11-03T08:41:05,42.805,6.029,CST-1368DR,7451,10439,15322,0.076,551
2019-11-03T08:44:07,42.805,6.029,CST-1368DR,7451,10438,15321,0.076,551
2019-11-03T08:47:08,42.805,6.029,CST-1368DR,7451,10439,15322,0.076,551
2019-11-03T08:50:10,42.805,6.029,CST-1368DR,7451,10439,15323,0.076,551
2019-11-03T08:53:12,42.805,6.029,CST-1368DR,7451,10438,15320,0.077,551
2019-11-03T08:56:13,42.805,6.029,CST-1368DR,7451,10439,15322,0.076,551
2019-11-03T08:59:15,42.805,6.029,CST-1368DR,7451,10438,15321,0.076,551
2019-11-03T09:02:17,42.805,6.029,CST-1368DR,7451,10438,15320,0.077,551
2019-11-03T09:05:18,42.805,6.029,CST-1368DR,7451,10437,15319,0.077,551
2019-11-03T09:08:20,42.805,6.029,CST-1368DR,7451,10439,15323,0.076,551
2019-11-03T09:11:22,42.805,6.029,CST-1368DR,7451,10439,15322,0.076,551
2019-11-03T09:14:23,42.805,6.029,CST-1368DR,7451,10439,15323,0.076,551
2019-11-03T09:17:25,42.805,6.029,CST-1368DR,7451,10439,15323,0.076,551
2019-11-03T09:20:27,42.805,6.029,CST-1368DR,7451,10439,15323,0.076,551
2019-11-03T09:23:28,42.805,6.029,CST-1368DR,7451,10439,15322,0.076,551
2019-11-03T09:26:30,42.805,6.029,CST-1368DR,7451,10438,15321,0.076,551
2019-11-03T09:29:31,42.805,6.029,CST-1368DR,7451,10438,15321,0.076,551
2019-11-03T09:32:33,42.805,6.029,CST-1368DR,7451,10438,15321,0.076,551
2019-11-03T09:35:35,42.805,6.029,CST-1368DR,7450,10437,15321,0.076,551
2019-11-03T09:38:36,42.805,6.029,CST-1368DR,7451,10439,15322,0.076,550
2019-11-03T09:41:38,42.805,6.029,CST-1368DR,7450,10438,15323,0.076,551
2019-11-03T09:44:40,42.805,6.029,CST-1368DR,7450,10438,15323,0.076,551
2019-11-03T09:47:41,42.805,6.029,CST-1368DR,7451,10439,15323,0.076,551
2019-11-03T09:50:43,42.805,6.029,CST-1368DR,7451,10439,15322,0.076,551
2019-11-03T09:53:45,42.805,6.029,CST-1368DR,7450,10436,15320,0.077,551
2019-11-03T09:56:46,42.805,6.029,CST-1368DR,7450,10439,15324,0.076,551
2019-11-03T09:59:48,42.805,6.029,CST-1368DR,7450,10437,15322,0.076,551
2019-11-03T10:02:49,42.805,6.029,CST-1368DR,7450,10438,15322,0.076,551
2019-11-03T10:05:51,42.805,6.029,CST-1368DR,7450,10439,15324,0.076,551
2019-11-03T10:08:53,42.805,6.029,CST-1368DR,7450,10438,15323,0.076,551
2019-11-03T10:11:54,42.805,6.029,CST-1368DR,7450,10438,15322,0.076,551
2019-11-03T10:14:56,42.805,6.029,CST-1368DR,7450,10434,15316,0.078,551
2019-11-03T10:17:58,42.805,6.029,CST-1368DR,7450,10437,15322,0.076,551
2019-11-03T10:20:59,42.805,6.029,CST-1368DR,7450,10437,15322,0.076,551
2019-11-03T10:24:01,42.805,6.029,CST-1368DR,7450,10439,15324,0.076,551
2019-11-03T10:27:03,42.805,6.029,CST-1368DR,7450,10438,15323,0.076,550
2019-11-03T10:30:04,42.805,6.029,CST-1368DR,7450,10438,15322,0.076,551
2019-11-03T10:33:06,42.805,6.029,CST-1368DR,7450,10439,15324,0.076,551
2019-11-03T10:36:08,42.805,6.029,CST-1368DR,7450,10439,15324,0.076,551
2019-11-03T10:39:09,42.805,6.029,CST-1368DR,7450,10438,15323,0.076,551
2019-11-03T10:42:11,42.805,6.029,CST-1368DR,7450,10438,15323,0.076,551
2019-11-03T10:45:13,42.805,6.029,CST-1368DR,7450,10438,15322,0.076,551
2019-11-03T10:48:14,42.805,6.029,CST-1368DR,7450,10437,15322,0.076,551
2019-11-03T10:51:16,42.805,6.029,CST-1368DR,7450,10437,15321,0.076,551
2019-11-03T10:54:17,42.805,6.029,CST-1368DR,7450,10436,15320,0.077,551
2019-11-03T10:57:19,42.805,6.029,CST-1368DR,7450,10438,15323,0.076,551
2019-11-03T11:00:21,42.805,6.029,CST-1368DR,7450,10429,15310,0.079,551
2019-11-03T11:03:22,42.805,6.029,CST-1368DR,7450,10438,15323,0.076,551
2019-11-03T11:06:24,42.805,6.029,CST-1368DR,7450,10438,15323,0.076,551
2019-11-03T11:09:26,42.805,6.029,CST-1368DR,7450,10437,15322,0.076,551
2019-11-03T11:12:27,42.805,6.029,CST-1368DR,7450,10437,15322,0.076,551
2019-11-03T11:15:29,42.805,6.029,CST-1368DR,7450,10437,15322,0.076,551
2019-11-03T11:18:31,42.805,6.029,CST-1368DR,7450,10437,15322,0.076,551
2019-11-03T11:21:32,42.805,6.029,CST-1368DR,7450,10437,15322,0.076,551
2019-11-03T11:24:34,42.805,6.029,CST-1368DR,7450,10438,15322,0.076,551
2019-11-03T11:27:35,42.805,6.029,CST-1368DR,7450,10437,15321,0.076,551
2019-11-03T11:30:37,42.805,6.029,CST-1368DR,7450,10437,15322,0.076,551
2019-11-03T11:33:39,42.805,6.029,CST-1368DR,7450,10437,15321,0.076,551
2019-11-03T11:36:40,42.805,6.029,CST-1368DR,7450,10437,15322,0.076,551
2019-11-03T11:39:42,42.805,6.029,CST-1368DR,7450,10438,15322,0.076,550
2019-11-03T11:42:44,42.805,6.029,CST-1368DR,7450,10436,15320,0.077,551
2019-11-03T11:45:45,42.805,6.029,CST-1368DR,7450,10433,15316,0.078,551
2019-11-03T11:48:47,42.805,6.029,CST-1368DR,7450,10435,15318,0.077,551
2019-11-03T11:51:49,42.805,6.029,CST-1368DR,7450,10436,15319,0.077,551
2019-11-03T11:54:50,42.805,6.029,CST-1368DR,7450,10434,15317,0.077,551
2019-11-03T11:57:52,42.805,6.029,CST-1368DR,7450,10437,15321,0.076,551
2019-11-03T12:00:54,42.805,6.029,CST-1368DR,7450,10436,15320,0.077,551
2019-11-03T12:03:55,42.805,6.029,CST-1368DR,7450,10434,15317,0.077,551
2019-11-03T12:06:57,42.805,6.029,CST-1368DR,7450,10438,15322,0.076,551
2019-11-03T12:09:59,42.805,6.029,CST-1368DR,7450,10436,15320,0.077,551
2019-11-03T12:13:00,42.805,6.029,CST-1368DR,7450,10435,15319,0.077,551
2019-11-03T12:16:02,42.805,6.029,CST-1368DR,7450,10437,15321,0.076,551
2019-11-03T12:19:04,42.805,6.029,CST-1368DR,7450,10437,15321,0.076,551
2019-11-03T12:22:05,42.805,6.029,CST-1368DR,7450,10436,15320,0.077,550
2019-11-03T12:25:07,42.805,6.029,CST-1368DR,7450,10437,15321,0.076,551
2019-11-03T12:28:08,42.805,6.029,CST-1368DR,7450,10436,15320,0.077,551
2019-11-03T12:31:10,42.805,6.029,CST-1368DR,7450,10437,15321,0.076,551
2019-11-03T12:34:12,42.805,6.029,CST-1368DR,7449,10437,15323,0.076,551
2019-11-03T12:37:13,42.805,6.029,CST-1368DR,7450,10437,15321,0.076,551
2019-11-03T12:40:15,42.805,6.029,CST-1368DR,7449,10437,15323,0.076,551
2019-11-03T12:43:17,42.805,6.029,CST-1368DR,7449,10434,15319,0.077,551
2019-11-03T12:46:18,42.805,6.029,CST-1368DR,7449,10435,15321,0.076,551
2019-11-03T12:49:20,42.805,6.029,CST-1368DR,7449,10435,15321,0.076,551
2019-11-03T12:52:22,42.805,6.029,CST-1368DR,7449,10437,15323,0.076,551
2019-11-03T12:55:23,42.805,6.029,CST-1368DR,7449,10436,15321,0.076,551
2019-11-03T12:58:25,42.805,6.029,CST-1368DR,7449,10436,15322,0.076,551
2019-11-03T13:01:27,42.805,6.029,CST-1368DR,7449,10435,15321,0.076,551
2019-11-03T13:04:29,42.805,6.029,CST-1368DR,7449,10437,15323,0.076,551
2019-11-03T13:07:31,42.805,6.029,CST-1368DR,7449,10436,15322,0.076,551
2019-11-03T13:10:32,42.805,6.029,CST-1368DR,7449,10436,15322,0.076,550
2019-11-03T13:13:34,42.805,6.029,CST-1368DR,7449,10436,15322,0.076,551
2019-11-03T13:16:35,42.805,6.029,CST-1368DR,7449,10437,15323,0.076,551
2019-11-03T13:19:37,42.805,6.029,CST-1368DR,7449,10436,15322,0.076,551
2019-11-03T13:22:39,42.805,6.029,CST-1368DR,7449,10435,15321,0.076,551
2019-11-03T13:25:40,42.805,6.029,CST-1368DR,7449,10437,15323,0.076,551
2019-11-03T13:28:42,42.805,6.029,CST-1368DR,7449,10435,15321,0.076,551
2019-11-03T13:31:44,42.805,6.029,CST-1368DR,7449,10436,15321,0.076,551
2019-11-03T13:34:45,42.805,6.029,CST-1368DR,7449,10437,15323,0.076,551
2019-11-03T13:37:47,42.805,6.029,CST-1368DR,7449,10436,15322,0.076,551
2019-11-03T13:40:49,42.805,6.029,CST-1368DR,7449,10432,15316,0.078,551
2019-11-03T13:43:50,42.805,6.029,CST-1368DR,7449,10435,15320,0.077,551
2019-11-03T13:46:52,42.805,6.029,CST-1368DR,7449,10436,15321,0.076,551
2019-11-03T13:49:54,42.805,6.029,CST-1368DR,7449,10431,15315,0.078,551
2019-11-03T13:52:55,42.805,6.029,CST-1368DR,7449,10435,15320,0.077,551
2019-11-03T13:55:57,42.805,6.029,CST-1368DR,7449,10436,15322,0.076,551
2019-11-03T13:58:58,42.805,6.029,CST-1368DR,7449,10434,15319,0.077,551
2019-11-03T14:02:00,42.805,6.029,CST-1368DR,7449,10436,15322,0.076,551
2019-11-03T14:05:02,42.805,6.029,CST-1368DR,7449,10436,15322,0.076,550
2019-11-03T14:08:03,42.805,6.029,CST-1368DR,7449,10436,15322,0.076,551
2019-11-03T14:11:05,42.805,6.029,CST-1368DR,7449,10436,15322,0.076,551
2019-11-03T14:14:07,42.805,6.029,CST-1368DR,7449,10428,15310,0.079,551
2019-11-03T14:17:08,42.805,6.029,CST-1368DR,7449,10436,15322,0.076,551
2019-11-03T14:20:10,42.805,6.029,CST-1368DR,7449,10436,15322,0.076,551
2019-11-03T14:23:12,42.805,6.029,CST-1368DR,7449,10436,15322,0.076,551
2019-11-03T14:26:13,42.805,6.029,CST-1368DR,7449,10436,15322,0.076,551
2019-11-03T14:29:15,42.805,6.029,CST-1368DR,7449,10435,15320,0.077,550
2019-11-03T14:32:17,42.805,6.029,CST-1368DR,7449,10435,15320,0.077,551
2019-11-03T14:35:18,42.805,6.029,CST-1368DR,7449,10432,15316,0.078,551
2019-11-03T14:38:20,42.805,6.029,CST-1368DR,7449,10433,15318,0.077,550
2019-11-03T14:41:22,42.805,6.029,CST-1368DR,7449,10434,15319,0.077,551
2019-11-03T14:44:23,42.805,6.029,CST-1368DR,7449,10433,15318,0.077,551
2019-11-03T14:47:25,42.805,6.029,CST-1368DR,7449,10436,15321,0.076,551
2019-11-03T14:50:27,42.805,6.029,CST-1368DR,7449,10436,15321,0.076,551
2019-11-03T14:53:28,42.805,6.029,CST-1368DR,7449,10437,15323,0.076,551
2019-11-03T14:56:30,42.805,6.029,CST-1368DR,7449,10434,15319,0.077,551
2019-11-03T14:59:32,42.805,6.029,CST-1368DR,7449,10434,15319,0.077,551
2019-11-03T15:02:33,42.805,6.029,CST-1368DR,7449,10433,15317,0.077,551
2019-11-03T15:05:35,42.805,6.029,CST-1368DR,7449,10434,15319,0.077,551
2019-11-03T15:08:36,42.805,6.029,CST-1368DR,7449,10435,15321,0.076,551
2019-11-03T15:11:38,42.805,6.029,CST-1368DR,7449,10434,15319,0.077,551
2019-11-03T15:14:40,42.805,6.029,CST-1368DR,7449,10435,15321,0.076,551
2019-11-03T15:17:41,42.805,6.029,CST-1368DR,7449,10434,15319,0.077,550
2019-11-03T15:20:43,42.805,6.029,CST-1368DR,7449,10434,15319,0.077,551
2019-11-03T15:23:45,42.805,6.029,CST-1368DR,7449,10434,15319,0.077,551
2019-11-03T15:26:46,42.805,6.029,CST-1368DR,7449,10433,15317,0.077,551
2019-11-03T15:29:48,42.805,6.029,CST-1368DR,7448,10434,15320,0.077,551
2019-11-03T15:32:50,42.805,6.029,CST-1368DR,7448,10433,15319,0.077,551
2019-11-03T15:35:51,42.805,6.029,CST-1368DR,7449,10436,15321,0.076,551
2019-11-03T15:38:53,42.805,6.029,CST-1368DR,7449,10435,15321,0.076,551
2019-11-03T15:41:55,42.805,6.029,CST-1368DR,7449,10436,15322,0.076,551
2019-11-03T15:44:56,42.805,6.029,CST-1368DR,7448,10434,15321,0.076,551
2019-11-03T15:47:58,42.805,6.029,CST-1368DR,7449,10433,15317,0.077,551
2019-11-03T15:51:00,42.805,6.029,CST-1368DR,7448,10436,15324,0.076,551
2019-11-03T15:54:01,42.805,6.029,CST-1368DR,7449,10435,15321,0.076,551
2019-11-03T15:57:03,42.805,6.029,CST-1368DR,7448,10435,15322,0.076,551
2019-11-03T16:00:05,42.805,6.029,CST-1368DR,7448,10436,15323,0.076,551
2019-11-03T16:03:06,42.805,6.029,CST-1368DR,7448,10436,15324,0.076,551
2019-11-03T16:06:08,42.805,6.029,CST-1368DR,7449,10436,15322,0.076,551
2019-11-03T16:09:10,42.805,6.029,CST-1368DR,7449,10436,15322,0.076,550
2019-11-03T16:12:11,42.805,6.029,CST-1368DR,7448,10436,15323,0.076,551
2019-11-03T16:15:13,42.805,6.029,CST-1368DR,7448,10435,15323,0.076,551
2019-11-03T16:18:14,42.805,6.029,CST-1368DR,7448,10436,15323,0.076,551
2019-11-03T16:21:16,42.805,6.029,CST-1368DR,7448,10434,15320,0.077,551
2019-11-03T16:24:18,42.805,6.029,CST-1368DR,7448,10434,15321,0.076,551
2019-11-03T16:27:19,42.805,6.029,CST-1368DR,7448,10436,15324,0.076,551
2019-11-03T16:30:21,42.805,6.029,CST-1368DR,7448,10433,15319,0.077,551
2019-11-03T16:33:23,42.805,6.029,CST-1368DR,7448,10435,15322,0.076,550
2019-11-03T16:36:24,42.805,6.029,CST-1368DR,7448,10435,15322,0.076,551